| time (UTC) | temp C | wind direction | speed KPH | gust KPH | rain 1hr cm | rain 24hr cm | rain mn cm | humidity % | barometer mb |
| 20260904042512 | 28 | 168 | 0.0 | 4.8 | 0.00 | 0.00 | 0.00 | 75 | 1014.6 |
| 20260904042014 | 28 | 146 | 0.0 | 4.8 | 0.00 | 0.00 | 0.00 | 76 | 1014.5 |
| 20260904041514 | 28 | 139 | 1.6 | 8.0 | 0.00 | 0.00 | 0.00 | 76 | 1014.7 |
| 20260904041011 | 28 | 146 | 1.6 | 8.0 | 0.00 | 0.00 | 0.00 | 76 | 1014.6 |
| 20260904040513 | 28 | 164 | 0.0 | 6.4 | 0.00 | 0.00 | 0.00 | 76 | 1014.6 |
| 20260904040021 | 28 | 140 | 3.2 | 6.4 | 0.00 | 0.00 | 0.00 | 76 | 1014.6 |
| 20260904035514 | 28 | 154 | 0.0 | 8.0 | 0.00 | 0.00 | 0.00 | 76 | 1014.6 |
| 20260904035021 | 28 | 149 | 3.2 | 9.7 | 0.00 | 0.00 | 0.00 | 77 | 1014.5 |
| 20260904034513 | 28 | 166 | 1.6 | 9.7 | 0.00 | 0.00 | 0.00 | 77 | 1014.7 |
| 20260904034010 | 28 | 159 | 1.6 | 8.0 | 0.00 | 0.00 | 0.00 | 77 | 1014.8 |
| 20260904033516 | 28 | 126 | 1.6 | 8.0 | 0.00 | 0.00 | 0.00 | 77 | 1015.0 |
| 20260904033009 | 28 | 168 | 0.0 | 6.4 | 0.00 | 0.00 | 0.00 | 77 | 1015.2 |
| 20260904032511 | 28 | 192 | 0.0 | 3.2 | 0.00 | 0.00 | 0.00 | 77 | 1015.2 |
| 20260904032013 | 28 | 181 | 0.0 | 8.0 | 0.00 | 0.00 | 0.00 | 77 | 1015.0 |
| 20260904031520 | 28 | 164 | 0.0 | 8.0 | 0.00 | 0.00 | 0.00 | 77 | 1015.0 |
| 20260904031014 | 28 | 134 | 1.6 | 8.0 | 0.00 | 0.00 | 0.00 | 77 | 1014.9 |
| 20260904030515 | 28 | 137 | 1.6 | 8.0 | 0.00 | 0.00 | 0.00 | 77 | 1014.9 |
| 20260904030015 | 28 | 108 | 3.2 | 8.0 | 0.00 | 0.00 | 0.00 | 78 | 1015.0 |
| 20260904025513 | 28 | 120 | 0.0 | 8.0 | 0.00 | 0.00 | 0.00 | 78 | 1014.9 |
| 20260904025017 | 28 | 107 | 0.0 | 6.4 | 0.00 | 0.00 | 0.00 | 79 | 1014.8 |
| 20260904024513 | 28 | 125 | 1.6 | 9.7 | 0.00 | 0.00 | 0.00 | 79 | 1014.7 |
| 20260904024014 | 28 | 111 | 1.6 | 9.7 | 0.00 | 0.00 | 0.00 | 80 | 1014.7 |
| 20260904023517 | 28 | 142 | 0.0 | 6.4 | 0.00 | 0.00 | 0.00 | 80 | 1014.8 |
| 20260904023018 | 28 | 161 | 1.6 | 6.4 | 0.00 | 0.00 | 0.00 | 81 | 1014.7 |
| 20260904022518 | 28 | 182 | 1.6 | 8.0 | 0.00 | 0.00 | 0.00 | 82 | 1014.7 |
| 20260904022018 | 27 | 139 | 1.6 | 9.7 | 0.00 | 0.00 | 0.00 | 83 | 1014.7 |
| 20260904021527 | 27 | 143 | 0.0 | 9.7 | 0.00 | 0.00 | 0.00 | 84 | 1014.6 |
| 20260904021014 | 27 | 131 | 0.0 | 8.0 | 0.00 | 0.00 | 0.00 | 86 | 1014.7 |
| 20260904020521 | 26 | 187 | 0.0 | 3.2 | 0.00 | 0.00 | 0.00 | 86 | 1014.7 |
| 20260904020018 | 26 | 148 | 0.0 | 0.0 | 0.00 | 0.00 | 0.00 | 86 | 1014.8 |
| 20260904015515 | 26 | 148 | 0.0 | 0.0 | 0.00 | 0.00 | 0.00 | 85 | 1014.9 |
| 20260904015021 | 27 | 148 | 0.0 | 0.0 | 0.00 | 0.00 | 0.00 | 85 | 1015.0 |
| 20260904014517 | 27 | 148 | 0.0 | 0.0 | 0.00 | 0.00 | 0.00 | 85 | 1015.1 |
| 20260904014017 | 27 | 148 | 0.0 | 0.0 | 0.00 | 0.00 | 0.00 | 84 | 1015.1 |
| 20260904013516 | 27 | 148 | 0.0 | 0.0 | 0.00 | 0.00 | 0.00 | 84 | 1015.2 |
| 20260904013020 | 27 | 148 | 0.0 | 0.0 | 0.00 | 0.00 | 0.00 | 84 | 1015.1 |
| 20260904012516 | 27 | 148 | 0.0 | 0.0 | 0.00 | 0.00 | 0.00 | 84 | 1015.2 |
| 20260904012016 | 27 | 148 | 0.0 | 0.0 | 0.00 | 0.00 | 0.00 | 83 | 1015.3 |
| 20260904011519 | 27 | 148 | 0.0 | 0.0 | 0.00 | 0.00 | 0.00 | 83 | 1015.3 |
| 20260904011016 | 27 | 148 | 0.0 | 0.0 | 0.00 | 0.00 | 0.00 | 83 | 1015.3 |
| 20260904010519 | 27 | 148 | 0.0 | 0.0 | 0.00 | 0.00 | 0.00 | 82 | 1015.4 |
| 20260904010023 | 27 | 148 | 0.0 | 0.0 | 0.00 | 0.00 | 0.00 | 82 | 1015.4 |
| 20260904005516 | 27 | 148 | 0.0 | 0.0 | 0.00 | 0.00 | 0.00 | 82 | 1015.4 |
| 20260904005016 | 28 | 148 | 0.0 | 0.0 | 0.00 | 0.00 | 0.00 | 82 | 1015.4 |
| 20260904004526 | 28 | 148 | 0.0 | 0.0 | 0.00 | 0.00 | 0.00 | 81 | 1015.4 |
| 20260904004004 | 28 | 148 | 0.0 | 0.0 | 0.00 | 0.00 | 0.00 | 81 | 1015.3 |
| 20260904003510 | 28 | 148 | 0.0 | 0.0 | 0.00 | 0.00 | 0.00 | 81 | 1015.3 |
| 20260904003027 | 28 | 148 | 0.0 | 0.0 | 0.00 | 0.00 | 0.00 | 80 | 1015.3 |
| 20260904002507 | 28 | 148 | 0.0 | 0.0 | 0.00 | 0.00 | 0.00 | 80 | 1015.2 |
| 20260904002010 | 28 | 148 | 0.0 | 0.0 | 0.00 | 0.00 | 0.00 | 80 | 1015.1 |
| 20260904001503 | 28 | 148 | 0.0 | 1.6 | 0.00 | 0.00 | 0.00 | 80 | 1015.0 |
| 20260904001008 | 28 | 148 | 0.0 | 1.6 | 0.00 | 0.00 | 0.00 | 79 | 1015.0 |
| 20260904000509 | 29 | 148 | 0.0 | 0.0 | 0.00 | 0.00 | 0.00 | 78 | 1014.9 |
| 20260904000003 | 29 | 148 | 0.0 | 0.0 | 0.00 | 0.00 | 0.00 | 78 | 1014.6 |
| 20260903235505 | 29 | 148 | 0.0 | 1.6 | 0.00 | 0.00 | 0.00 | 78 | 1014.6 |
| 20260903235011 | 30 | 148 | 0.0 | 1.6 | 0.00 | 0.00 | 0.00 | 77 | 1014.5 |
| 20260903234504 | 30 | 148 | 0.0 | 0.0 | 0.00 | 0.00 | 0.00 | 76 | 1014.4 |
| 20260903234005 | 30 | 148 | 0.0 | 0.0 | 0.00 | 0.00 | 0.00 | 76 | 1014.5 |
| 20260903233514 | 30 | 148 | 0.0 | 0.0 | 0.00 | 0.00 | 0.00 | 75 | 1014.4 |
| 20260903233003 | 30 | 148 | 0.0 | 0.0 | 0.00 | 0.00 | 0.00 | 75 | 1014.3 |
| 20260903232506 | 31 | 148 | 0.0 | 0.0 | 0.00 | 0.00 | 0.00 | 74 | 1014.4 |
| 20260903232010 | 31 | 148 | 0.0 | 0.0 | 0.00 | 0.00 | 0.00 | 74 | 1014.4 |
| 20260903231503 | 31 | 148 | 0.0 | 0.0 | 0.00 | 0.00 | 0.00 | 73 | 1014.4 |
| 20260903231005 | 31 | 148 | 0.0 | 0.0 | 0.00 | 0.00 | 0.00 | 73 | 1014.3 |
| 20260903230514 | 31 | 148 | 0.0 | 0.0 | 0.00 | 0.00 | 0.00 | 73 | 1014.2 |
| 20260903230003 | 31 | 148 | 0.0 | 0.0 | 0.00 | 0.00 | 0.00 | 72 | 1014.2 |
| 20260903225509 | 31 | 148 | 0.0 | 0.0 | 0.00 | 0.00 | 0.00 | 72 | 1014.3 |
| 20260903225013 | 32 | 148 | 0.0 | 0.0 | 0.00 | 0.00 | 0.00 | 71 | 1014.3 |
| 20260903224503 | 32 | 148 | 0.0 | 0.0 | 0.00 | 0.00 | 0.00 | 71 | 1014.2 |
| 20260903224012 | 32 | 148 | 0.0 | 0.0 | 0.00 | 0.00 | 0.00 | 70 | 1014.1 |
| 20260903223515 | 32 | 148 | 0.0 | 0.0 | 0.00 | 0.00 | 0.00 | 69 | 1014.2 |
| 20260903223003 | 32 | 148 | 0.0 | 0.0 | 0.00 | 0.00 | 0.00 | 67 | 1014.3 |
| 20260903222511 | 32 | 148 | 0.0 | 0.0 | 0.00 | 0.00 | 0.00 | 68 | 1014.2 |
| 20260903222014 | 32 | 148 | 0.0 | 0.0 | 0.00 | 0.00 | 0.00 | 68 | 1014.1 |
| 20260903221504 | 32 | 148 | 0.0 | 0.0 | 0.00 | 0.00 | 0.00 | 68 | 1014.2 |
| 20260903221009 | 32 | 148 | 0.0 | 0.0 | 0.00 | 0.00 | 0.00 | 66 | 1014.3 |
| 20260903220515 | 33 | 148 | 0.0 | 0.0 | 0.00 | 0.00 | 0.00 | 66 | 1014.3 |
| 20260903220003 | 33 | 148 | 0.0 | 0.0 | 0.00 | 0.00 | 0.00 | 63 | 1014.4 |
| 20260903215514 | 33 | 148 | 0.0 | 0.0 | 0.00 | 0.00 | 0.00 | 61 | 1014.5 |
| 20260903215013 | 33 | 148 | 0.0 | 0.0 | 0.00 | 0.00 | 0.00 | 60 | 1014.4 |
| 20260903214510 | 33 | 148 | 0.0 | 0.0 | 0.00 | 0.00 | 0.00 | 58 | 1014.4 |
| 20260903214010 | 34 | 148 | 0.0 | 0.0 | 0.00 | 0.00 | 0.00 | 57 | 1014.4 |
| 20260903213518 | 34 | 148 | 0.0 | 0.0 | 0.00 | 0.00 | 0.00 | 56 | 1014.3 |
| 20260903213007 | 34 | 148 | 0.0 | 0.0 | 0.00 | 0.00 | 0.00 | 54 | 1014.3 |
| 20260903212510 | 35 | 148 | 0.0 | 0.0 | 0.00 | 0.00 | 0.00 | 54 | 1014.3 |
| 20260903212016 | 35 | 148 | 0.0 | 0.0 | 0.00 | 0.00 | 0.00 | 52 | 1014.3 |
| 20260903211507 | 35 | 103 | 0.0 | 3.2 | 0.00 | 0.00 | 0.00 | 52 | 1014.3 |
| 20260903211012 | 35 | 152 | 0.0 | 3.2 | 0.00 | 0.00 | 0.00 | 50 | 1014.4 |
| 20260903210518 | 35 | 199 | 0.0 | 1.6 | 0.00 | 0.00 | 0.00 | 52 | 1014.5 |
| 20260903210010 | 35 | 63 | 0.0 | 3.2 | 0.00 | 0.00 | 0.00 | 50 | 1014.6 |
| 20260903205514 | 35 | 5 | 0.0 | 3.2 | 0.00 | 0.00 | 0.00 | 52 | 1014.5 |
| 20260903205020 | 35 | 130 | 0.0 | 4.8 | 0.00 | 0.00 | 0.00 | 55 | 1014.5 |
| 20260903204511 | 35 | 5 | 0.0 | 9.7 | 0.00 | 0.00 | 0.00 | 55 | 1014.6 |
| 20260903204012 | 35 | 339 | 3.2 | 8.0 | 0.00 | 0.00 | 0.00 | 55 | 1014.7 |
| 20260903203514 | 35 | 318 | 0.0 | 3.2 | 0.00 | 0.00 | 0.00 | 55 | 1014.7 |
| 20260903203010 | 35 | 43 | 0.0 | 3.2 | 0.00 | 0.00 | 0.00 | 54 | 1014.7 |
| 20260903202511 | 35 | 349 | 0.0 | 6.4 | 0.00 | 0.00 | 0.00 | 55 | 1014.8 |
| 20260903202018 | 35 | 32 | 1.6 | 6.4 | 0.00 | 0.00 | 0.00 | 56 | 1014.9 |
| 20260903201513 | 35 | 329 | 0.0 | 6.4 | 0.00 | 0.00 | 0.00 | 56 | 1015.1 |
| 20260903201019 | 35 | 341 | 0.0 | 6.4 | 0.00 | 0.00 | 0.00 | 55 | 1015.1 |
| 20260903200517 | 35 | 9 | 1.6 | 4.8 | 0.00 | 0.00 | 0.00 | 56 | 1015.1 |
| 20260903200012 | 35 | 335 | 0.0 | 4.8 | 0.00 | 0.00 | 0.00 | 55 | 1015.3 |
| 20260903195515 | 34 | 19 | 1.6 | 4.8 | 0.00 | 0.00 | 0.00 | 56 | 1015.4 |
| 20260903195019 | 34 | 336 | 0.0 | 4.8 | 0.00 | 0.00 | 0.00 | 57 | 1015.4 |
| 20260903194514 | 35 | 346 | 1.6 | 6.4 | 0.00 | 0.00 | 0.00 | 57 | 1015.4 |
| 20260903194020 | 35 | 355 | 0.0 | 6.4 | 0.00 | 0.00 | 0.00 | 57 | 1015.5 |
| 20260903193517 | 35 | 28 | 3.2 | 6.4 | 0.00 | 0.00 | 0.00 | 56 | 1015.5 |
| 20260903193018 | 35 | 296 | 0.0 | 3.2 | 0.00 | 0.00 | 0.00 | 56 | 1015.6 |
| 20260903192513 | 35 | 355 | 0.0 | 4.8 | 0.00 | 0.00 | 0.00 | 55 | 1015.5 |
| 20260903192017 | 35 | 286 | 0.0 | 6.4 | 0.00 | 0.00 | 0.00 | 52 | 1015.6 |
| 20260903191540 | 35 | 340 | 0.0 | 6.4 | 0.00 | 0.00 | 0.00 | 52 | 1015.6 |
| 20260903191017 | 35 | 335 | 0.0 | 4.8 | 0.00 | 0.00 | 0.00 | 52 | 1015.7 |
| 20260903190518 | 35 | 304 | 0.0 | 4.8 | 0.00 | 0.00 | 0.00 | 54 | 1015.8 |
| 20260903190016 | 35 | 116 | 0.0 | 6.4 | 0.00 | 0.00 | 0.00 | 55 | 1015.9 |
| 20260903185513 | 35 | 340 | 0.0 | 6.4 | 0.00 | 0.00 | 0.00 | 56 | 1016.0 |
| 20260903185017 | 35 | 355 | 1.6 | 6.4 | 0.00 | 0.00 | 0.00 | 56 | 1016.1 |
| 20260903184520 | 35 | 317 | 0.0 | 4.8 | 0.00 | 0.00 | 0.00 | 56 | 1016.1 |
| 20260903184016 | 35 | 329 | 0.0 | 4.8 | 0.00 | 0.00 | 0.00 | 54 | 1016.2 |
| 20260903183508 | 35 | 32 | 0.0 | 4.8 | 0.00 | 0.00 | 0.00 | 61 | 1016.2 |
| 20260903183027 | 35 | 355 | 0.0 | 4.8 | 0.00 | 0.00 | 0.00 | 57 | 1016.2 |
| 20260903182514 | 35 | 30 | 0.0 | 8.0 | 0.00 | 0.00 | 0.00 | 59 | 1016.2 |
| 20260903182006 | 34 | 301 | 0.0 | 8.0 | 0.00 | 0.00 | 0.00 | 57 | 1016.2 |
| 20260903181519 | 34 | 349 | 0.0 | 4.8 | 0.00 | 0.00 | 0.00 | 59 | 1016.4 |
| 20260903181014 | 35 | 180 | 0.0 | 4.8 | 0.00 | 0.00 | 0.00 | 59 | 1016.6 |
| 20260903180506 | 34 | 143 | 0.0 | 6.4 | 0.00 | 0.00 | 0.00 | 60 | 1016.7 |
| 20260903180031 | 33 | 30 | 0.0 | 6.4 | 0.00 | 0.00 | 0.00 | 60 | 1016.8 |
| 20260903175517 | 33 | 9 | 1.6 | 6.4 | 0.00 | 0.00 | 0.00 | 60 | 1016.8 |
| 20260903175007 | 34 | 319 | 0.0 | 4.8 | 0.00 | 0.00 | 0.00 | 59 | 1016.7 |
| 20260903174525 | 33 | 340 | 1.6 | 4.8 | 0.00 | 0.00 | 0.00 | 63 | 1016.8 |
| 20260903174015 | 33 | 336 | 1.6 | 4.8 | 0.00 | 0.00 | 0.00 | 63 | 1016.7 |
| 20260903173511 | 33 | 301 | 1.6 | 8.0 | 0.00 | 0.00 | 0.00 | 63 | 1016.8 |
| 20260903173025 | 33 | 5 | 3.2 | 8.0 | 0.00 | 0.00 | 0.00 | 63 | 1016.8 |
| 20260903172517 | 33 | 20 | 1.6 | 6.4 | 0.00 | 0.00 | 0.00 | 65 | 1016.8 |
| 20260903172010 | 33 | 337 | 0.0 | 8.0 | 0.00 | 0.00 | 0.00 | 65 | 1016.9 |
| 20260903171535 | 32 | 74 | 1.6 | 8.0 | 0.00 | 0.00 | 0.00 | 67 | 1016.8 |
| 20260903171019 | 33 | 316 | 1.6 | 6.4 | 0.00 | 0.00 | 0.00 | 65 | 1016.9 |
| 20260903170510 | 33 | 46 | 0.0 | 4.8 | 0.00 | 0.00 | 0.00 | 65 | 1016.9 |
| 20260903170031 | 33 | 31 | 1.6 | 4.8 | 0.00 | 0.00 | 0.00 | 66 | 1017.0 |
| 20260903165517 | 33 | 305 | 0.0 | 8.0 | 0.00 | 0.00 | 0.00 | 65 | 1017.0 |
| 20260903165014 | 32 | 332 | 0.0 | 8.0 | 0.00 | 0.00 | 0.00 | 68 | 1017.2 |
| 20260903164526 | 32 | 351 | 0.0 | 6.4 | 0.00 | 0.00 | 0.00 | 67 | 1017.3 |
| 20260903164017 | 32 | 334 | 1.6 | 8.0 | 0.00 | 0.00 | 0.00 | 65 | 1017.4 |
| 20260903163515 | 32 | 5 | 0.0 | 8.0 | 0.00 | 0.00 | 0.00 | 67 | 1017.4 |
| 20260903163029 | 32 | 31 | 0.0 | 6.4 | 0.00 | 0.00 | 0.00 | 66 | 1017.4 |
| 20260903162514 | 32 | 13 | 0.0 | 4.8 | 0.00 | 0.00 | 0.00 | 69 | 1017.5 |
| 20260903162011 | 32 | 160 | 0.0 | 4.8 | 0.00 | 0.00 | 0.00 | 70 | 1017.6 |
| 20260903161528 | 31 | 47 | 0.0 | 6.4 | 0.00 | 0.00 | 0.00 | 69 | 1017.6 |
| 20260903161019 | 32 | 36 | 1.6 | 6.4 | 0.00 | 0.00 | 0.00 | 68 | 1017.6 |
| 20260903160513 | 32 | 57 | 1.6 | 6.4 | 0.00 | 0.00 | 0.00 | 68 | 1017.7 |
| 20260903160026 | 31 | 5 | 0.0 | 4.8 | 0.00 | 0.00 | 0.00 | 70 | 1017.7 |
| 20260903155518 | 32 | 337 | 1.6 | 4.8 | 0.00 | 0.00 | 0.00 | 70 | 1017.8 |
| 20260903155011 | 31 | 25 | 0.0 | 4.8 | 0.00 | 0.00 | 0.00 | 70 | 1017.7 |
| 20260903154507 | 31 | 342 | 0.0 | 4.8 | 0.00 | 0.00 | 0.00 | 69 | 1017.8 |
| 20260903154008 | 31 | 108 | 1.6 | 9.7 | 0.00 | 0.00 | 0.00 | 68 | 1017.8 |
| 20260903153512 | 31 | 267 | 3.2 | 9.7 | 0.00 | 0.00 | 0.00 | 72 | 1017.9 |
| 20260903153003 | 31 | 311 | 0.0 | 8.0 | 0.00 | 0.00 | 0.00 | 71 | 1017.9 |
| 20260903152507 | 31 | 321 | 0.0 | 4.8 | 0.00 | 0.00 | 0.00 | 71 | 1017.9 |
| 20260903152014 | 31 | 288 | 0.0 | 8.0 | 0.00 | 0.00 | 0.00 | 73 | 1018.0 |
| 20260903151510 | 30 | 347 | 1.6 | 8.0 | 0.00 | 0.00 | 0.00 | 75 | 1017.9 |
| 20260903151009 | 30 | 58 | 1.6 | 6.4 | 0.00 | 0.00 | 0.00 | 74 | 1018.0 |
| 20260903150514 | 30 | 310 | 0.0 | 3.2 | 0.00 | 0.00 | 0.00 | 75 | 1018.0 |
| 20260903150014 | 30 | 355 | 0.0 | 0.0 | 0.00 | 0.00 | 0.00 | 75 | 1018.0 |
| 20260903145507 | 30 | 282 | 0.0 | 0.0 | 0.00 | 0.00 | 0.00 | 76 | 1017.9 |
| 20260903145017 | 30 | 355 | 0.0 | 1.6 | 0.00 | 0.00 | 0.00 | 75 | 1017.8 |
| 20260903144513 | 29 | 317 | 0.0 | 6.4 | 0.00 | 0.00 | 0.00 | 76 | 1017.8 |
| 20260903144010 | 29 | 12 | 0.0 | 6.4 | 0.00 | 0.00 | 0.00 | 77 | 1017.6 |
| 20260903143513 | 29 | 317 | 3.2 | 6.4 | 0.00 | 0.00 | 0.00 | 77 | 1017.8 |
| 20260903143007 | 28 | 5 | 0.0 | 4.8 | 0.00 | 0.00 | 0.00 | 77 | 1017.5 |
| 20260903142512 | 28 | 5 | 0.0 | 3.2 | 0.00 | 0.00 | 0.00 | 78 | 1017.4 |
| 20260903142015 | 28 | 14 | 0.0 | 3.2 | 0.00 | 0.00 | 0.00 | 79 | 1017.4 |
| 20260903141512 | 28 | 347 | 0.0 | 3.2 | 0.00 | 0.00 | 0.00 | 78 | 1017.4 |
| 20260903141010 | 28 | 347 | 0.0 | 1.6 | 0.00 | 0.00 | 0.00 | 78 | 1017.4 |
| 20260903140514 | 28 | 240 | 0.0 | 3.2 | 0.00 | 0.00 | 0.00 | 80 | 1017.3 |
| 20260903140012 | 28 | 355 | 0.0 | 3.2 | 0.00 | 0.00 | 0.00 | 79 | 1017.4 |
| 20260903135510 | 28 | 311 | 0.0 | 0.0 | 0.00 | 0.00 | 0.00 | 79 | 1017.4 |
| 20260903135016 | 27 | 5 | 0.0 | 0.0 | 0.00 | 0.00 | 0.00 | 80 | 1017.4 |
| 20260903134511 | 27 | 344 | 0.0 | 0.0 | 0.00 | 0.00 | 0.00 | 81 | 1017.4 |
| 20260903134012 | 27 | 344 | 0.0 | 0.0 | 0.00 | 0.00 | 0.00 | 81 | 1017.4 |
| 20260903133504 | 27 | 355 | 0.0 | 0.0 | 0.00 | 0.00 | 0.00 | 82 | 1017.5 |
| 20260903133013 | 27 | 346 | 0.0 | 0.0 | 0.00 | 0.00 | 0.00 | 85 | 1017.4 |
| 20260903132517 | 26 | 69 | 0.0 | 0.0 | 0.00 | 0.00 | 0.00 | 85 | 1017.5 |
| 20260903132006 | 26 | 15 | 0.0 | 0.0 | 0.00 | 0.00 | 0.00 | 87 | 1017.6 |
| 20260903131516 | 26 | 20 | 0.0 | 0.0 | 0.00 | 0.00 | 0.00 | 88 | 1017.7 |
| 20260903131012 | 26 | 20 | 0.0 | 0.0 | 0.00 | 0.00 | 0.00 | 90 | 1017.7 |
| 20260903130503 | 25 | 41 | 0.0 | 0.0 | 0.00 | 0.00 | 0.00 | 90 | 1017.7 |
| 20260903130013 | 25 | 41 | 0.0 | 0.0 | 0.00 | 0.00 | 0.00 | 91 | 1017.9 |
| 20260903125515 | 25 | 34 | 0.0 | 0.0 | 0.00 | 0.00 | 0.00 | 92 | 1018.0 |
| 20260903125004 | 25 | 344 | 0.0 | 0.0 | 0.00 | 0.00 | 0.00 | 93 | 1018.0 |
| 20260903124514 | 24 | 344 | 0.0 | 0.0 | 0.00 | 0.00 | 0.00 | 94 | 1018.0 |
| 20260903124013 | 24 | 344 | 0.0 | 0.0 | 0.00 | 0.00 | 0.00 | 95 | 1018.0 |
| 20260903123511 | 23 | 344 | 0.0 | 0.0 | 0.00 | 0.00 | 0.00 | 95 | 1018.0 |
| 20260903123015 | 23 | 344 | 0.0 | 0.0 | 0.00 | 0.00 | 0.00 | 95 | 1017.9 |
| 20260903122517 | 23 | 344 | 0.0 | 0.0 | 0.00 | 0.00 | 0.00 | 96 | 1017.9 |
| 20260903122006 | 23 | 344 | 0.0 | 0.0 | 0.00 | 0.00 | 0.00 | 96 | 1017.9 |
| 20260903121526 | 23 | 344 | 0.0 | 0.0 | 0.00 | 0.00 | 0.00 | 96 | 1017.9 |
| 20260903121016 | 23 | 344 | 0.0 | 0.0 | 0.00 | 0.00 | 0.00 | 96 | 1017.9 |
| 20260903120506 | 23 | 344 | 0.0 | 0.0 | 0.00 | 0.00 | 0.00 | 96 | 1017.9 |
| 20260903120022 | 23 | 345 | 0.0 | 0.0 | 0.00 | 0.00 | 0.00 | 96 | 1017.9 |
| 20260903115516 | 22 | 344 | 0.0 | 0.0 | 0.00 | 0.00 | 0.00 | 96 | 1017.9 |
| 20260903115007 | 22 | 345 | 0.0 | 0.0 | 0.00 | 0.00 | 0.00 | 96 | 1017.8 |
| 20260903114520 | 22 | 344 | 0.0 | 0.0 | 0.00 | 0.00 | 0.00 | 96 | 1017.8 |
| 20260903114013 | 22 | 344 | 0.0 | 0.0 | 0.00 | 0.00 | 0.00 | 96 | 1017.7 |
| 20260903113507 | 22 | 344 | 0.0 | 0.0 | 0.00 | 0.00 | 0.00 | 96 | 1017.7 |
| 20260903113019 | 22 | 344 | 0.0 | 0.0 | 0.00 | 0.00 | 0.00 | 96 | 1017.7 |
| 20260903112517 | 22 | 345 | 0.0 | 0.0 | 0.00 | 0.00 | 0.00 | 96 | 1017.5 |
| 20260903112009 | 22 | 345 | 0.0 | 0.0 | 0.00 | 0.00 | 0.00 | 96 | 1017.5 |
| 20260903111523 | 22 | 344 | 0.0 | 0.0 | 0.00 | 0.00 | 0.00 | 96 | 1017.6 |
| 20260903111017 | 22 | 345 | 0.0 | 0.0 | 0.00 | 0.00 | 0.00 | 96 | 1017.5 |
| 20260903110510 | 22 | 344 | 0.0 | 0.0 | 0.00 | 0.00 | 0.00 | 96 | 1017.4 |
| 20260903110023 | 22 | 344 | 0.0 | 0.0 | 0.00 | 0.00 | 0.00 | 96 | 1017.4 |
| 20260903105518 | 22 | 344 | 0.0 | 0.0 | 0.00 | 0.00 | 0.00 | 95 | 1017.4 |
| 20260903105012 | 22 | 344 | 0.0 | 0.0 | 0.00 | 0.00 | 0.00 | 96 | 1017.4 |
| 20260903104526 | 22 | 344 | 0.0 | 0.0 | 0.00 | 0.00 | 0.00 | 96 | 1017.3 |
| 20260903104017 | 22 | 344 | 0.0 | 0.0 | 0.00 | 0.00 | 0.00 | 96 | 1017.3 |
| 20260903103511 | 22 | 344 | 0.0 | 0.0 | 0.00 | 0.00 | 0.00 | 96 | 1017.3 |
| 20260903103027 | 22 | 344 | 0.0 | 1.6 | 0.00 | 0.00 | 0.00 | 95 | 1017.4 |
| 20260903102514 | 22 | 345 | 0.0 | 1.6 | 0.00 | 0.00 | 0.00 | 95 | 1017.5 |
| 20260903102014 | 22 | 341 | 0.0 | 0.0 | 0.00 | 0.00 | 0.00 | 95 | 1017.4 |
| 20260903101526 | 22 | 59 | 0.0 | 0.0 | 0.00 | 0.00 | 0.00 | 95 | 1017.3 |
| 20260903101018 | 22 | 59 | 0.0 | 0.0 | 0.00 | 0.00 | 0.00 | 95 | 1017.3 |
| 20260903100510 | 22 | 59 | 0.0 | 0.0 | 0.00 | 0.00 | 0.00 | 95 | 1017.2 |
| 20260903100027 | 22 | 59 | 0.0 | 0.0 | 0.00 | 0.00 | 0.00 | 95 | 1017.2 |
| 20260903095517 | 22 | 59 | 0.0 | 0.0 | 0.00 | 0.00 | 0.00 | 95 | 1017.2 |
| 20260903095019 | 22 | 59 | 0.0 | 0.0 | 0.00 | 0.00 | 0.00 | 95 | 1017.2 |
| 20260903094504 | 22 | 59 | 0.0 | 0.0 | 0.00 | 0.00 | 0.00 | 95 | 1017.2 |
| 20260903094012 | 22 | 59 | 0.0 | 0.0 | 0.00 | 0.00 | 0.00 | 95 | 1017.3 |
| 20260903093512 | 22 | 59 | 0.0 | 0.0 | 0.00 | 0.00 | 0.00 | 95 | 1017.3 |
| 20260903093003 | 22 | 59 | 0.0 | 0.0 | 0.00 | 0.00 | 0.00 | 95 | 1017.3 |
| 20260903092513 | 22 | 59 | 0.0 | 0.0 | 0.00 | 0.00 | 0.00 | 95 | 1017.2 |
| 20260903092015 | 22 | 59 | 0.0 | 0.0 | 0.00 | 0.00 | 0.00 | 95 | 1017.2 |
| 20260903091504 | 22 | 59 | 0.0 | 0.0 | 0.00 | 0.00 | 0.00 | 95 | 1017.1 |
| 20260903091007 | 22 | 59 | 0.0 | 0.0 | 0.00 | 0.00 | 0.00 | 95 | 1017.0 |
| 20260903090515 | 22 | 59 | 0.0 | 0.0 | 0.00 | 0.00 | 0.00 | 95 | 1016.9 |
| 20260903090005 | 22 | 59 | 0.0 | 0.0 | 0.00 | 0.00 | 0.00 | 95 | 1016.8 |
| 20260903085509 | 22 | 59 | 0.0 | 0.0 | 0.00 | 0.00 | 0.00 | 95 | 1016.8 |
| 20260903085011 | 23 | 59 | 0.0 | 0.0 | 0.00 | 0.00 | 0.00 | 95 | 1016.7 |
| 20260903084504 | 23 | 59 | 0.0 | 0.0 | 0.00 | 0.00 | 0.00 | 95 | 1016.7 |
| 20260903084010 | 23 | 59 | 0.0 | 0.0 | 0.00 | 0.00 | 0.00 | 95 | 1016.8 |
| 20260903083515 | 23 | 59 | 0.0 | 0.0 | 0.00 | 0.00 | 0.00 | 95 | 1016.8 |
| 20260903083008 | 23 | 59 | 0.0 | 0.0 | 0.00 | 0.00 | 0.00 | 95 | 1016.7 |
| 20260903082509 | 23 | 59 | 0.0 | 0.0 | 0.00 | 0.00 | 0.00 | 95 | 1016.6 |
| 20260903082003 | 23 | 59 | 0.0 | 0.0 | 0.00 | 0.00 | 0.00 | 95 | 1016.8 |
| 20260903081506 | 23 | 59 | 0.0 | 0.0 | 0.00 | 0.00 | 0.00 | 95 | 1016.8 |
| 20260903081014 | 23 | 59 | 0.0 | 0.0 | 0.00 | 0.00 | 0.00 | 95 | 1017.0 |
| 20260903080504 | 23 | 59 | 0.0 | 0.0 | 0.00 | 0.00 | 0.00 | 95 | 1017.1 |
| 20260903080008 | 23 | 59 | 0.0 | 0.0 | 0.00 | 0.00 | 0.00 | 95 | 1017.1 |
| 20260903075513 | 23 | 59 | 0.0 | 0.0 | 0.00 | 0.00 | 0.00 | 95 | 1017.0 |
| 20260903075003 | 23 | 59 | 0.0 | 0.0 | 0.00 | 0.00 | 0.00 | 95 | 1017.0 |
| 20260903074511 | 23 | 59 | 0.0 | 0.0 | 0.00 | 0.00 | 0.00 | 95 | 1017.1 |
| 20260903074010 | 23 | 59 | 0.0 | 0.0 | 0.00 | 0.00 | 0.00 | 95 | 1017.2 |
| 20260903073504 | 23 | 59 | 0.0 | 0.0 | 0.00 | 0.00 | 0.00 | 95 | 1017.0 |
| 20260903073011 | 23 | 59 | 0.0 | 0.0 | 0.00 | 0.00 | 0.00 | 94 | 1016.9 |
| 20260903072513 | 23 | 59 | 0.0 | 0.0 | 0.00 | 0.00 | 0.00 | 94 | 1016.9 |
| 20260903072003 | 23 | 59 | 0.0 | 0.0 | 0.00 | 0.00 | 0.00 | 94 | 1017.0 |
| 20260903071509 | 23 | 59 | 0.0 | 0.0 | 0.00 | 0.00 | 0.00 | 94 | 1017.1 |
| 20260903071016 | 23 | 59 | 0.0 | 0.0 | 0.00 | 0.00 | 0.00 | 94 | 1017.2 |
| 20260903070508 | 23 | 59 | 0.0 | 0.0 | 0.00 | 0.00 | 0.00 | 94 | 1017.2 |
| 20260903070016 | 23 | 59 | 0.0 | 0.0 | 0.00 | 0.00 | 0.00 | 94 | 1017.3 |
| 20260903065512 | 23 | 59 | 0.0 | 0.0 | 0.00 | 0.00 | 0.00 | 94 | 1017.2 |
| 20260903065003 | 23 | 59 | 0.0 | 0.0 | 0.00 | 0.00 | 0.00 | 94 | 1017.1 |
| 20260903064511 | 23 | 59 | 0.0 | 0.0 | 0.00 | 0.00 | 0.00 | 94 | 1017.0 |
| 20260903064011 | 23 | 59 | 0.0 | 0.0 | 0.00 | 0.00 | 0.00 | 94 | 1017.1 |
| 20260903063504 | 23 | 59 | 0.0 | 0.0 | 0.00 | 0.00 | 0.00 | 94 | 1017.2 |
| 20260903063011 | 23 | 59 | 0.0 | 0.0 | 0.00 | 0.00 | 0.00 | 94 | 1017.3 |
| 20260903062514 | 23 | 59 | 0.0 | 0.0 | 0.00 | 0.00 | 0.00 | 94 | 1017.3 |
| 20260903062006 | 23 | 59 | 0.0 | 0.0 | 0.00 | 0.00 | 0.00 | 94 | 1017.3 |
| 20260903061516 | 23 | 59 | 0.0 | 0.0 | 0.00 | 0.00 | 0.00 | 94 | 1017.4 |
| 20260903061015 | 23 | 59 | 0.0 | 0.0 | 0.00 | 0.00 | 0.00 | 94 | 1017.4 |
| 20260903060506 | 23 | 355 | 0.0 | 0.0 | 0.00 | 0.00 | 0.00 | 94 | 1017.2 |
| 20260903060016 | 23 | 355 | 0.0 | 0.0 | 0.00 | 0.00 | 0.00 | 94 | 1017.3 |
| 20260903055516 | 23 | 355 | 0.0 | 0.0 | 0.00 | 0.00 | 0.00 | 94 | 1017.4 |
| 20260903055004 | 23 | 355 | 0.0 | 0.0 | 0.00 | 0.00 | 0.00 | 94 | 1017.5 |
| 20260903054518 | 23 | 355 | 0.0 | 0.0 | 0.00 | 0.00 | 0.00 | 93 | 1017.6 |
| 20260903054014 | 23 | 355 | 0.0 | 0.0 | 0.00 | 0.00 | 0.00 | 93 | 1017.7 |
| 20260903053507 | 23 | 355 | 0.0 | 0.0 | 0.00 | 0.00 | 0.00 | 93 | 1017.8 |
| 20260903053016 | 23 | 355 | 0.0 | 0.0 | 0.00 | 0.00 | 0.00 | 93 | 1017.9 |
| 20260903052516 | 23 | 355 | 0.0 | 0.0 | 0.00 | 0.00 | 0.00 | 93 | 1017.8 |
| 20260903052006 | 23 | 355 | 0.0 | 0.0 | 0.00 | 0.00 | 0.00 | 93 | 1017.7 |
| 20260903051518 | 23 | 355 | 0.0 | 0.0 | 0.00 | 0.00 | 0.00 | 93 | 1017.6 |
| 20260903051014 | 23 | 355 | 0.0 | 0.0 | 0.00 | 0.00 | 0.00 | 93 | 1017.7 |
| 20260903050506 | 23 | 355 | 0.0 | 0.0 | 0.00 | 0.00 | 0.00 | 93 | 1017.7 |
| 20260903050025 | 24 | 355 | 0.0 | 0.0 | 0.00 | 0.00 | 0.00 | 93 | 1017.7 |
| 20260903045516 | 24 | 355 | 0.0 | 0.0 | 0.00 | 0.00 | 0.00 | 93 | 1017.6 |
| 20260903045007 | 24 | 355 | 0.0 | 0.0 | 0.00 | 0.00 | 0.00 | 93 | 1017.6 |
| 20260903044519 | 24 | 355 | 0.0 | 0.0 | 0.00 | 0.00 | 0.00 | 93 | 1017.7 |
| 20260903044015 | 24 | 355 | 0.0 | 0.0 | 0.00 | 0.00 | 0.00 | 93 | 1017.6 |
| 20260903043510 | 24 | 355 | 0.0 | 0.0 | 0.00 | 0.00 | 0.00 | 93 | 1017.7 |
| 20260903043020 | 24 | 355 | 0.0 | 0.0 | 0.00 | 0.00 | 0.00 | 93 | 1017.6 |